• In Deutschland
  • Länderverzeichnis
  • Für 7 Tage
  • Wassertemperatur
  • Satellitenkarten
  • Wetterkarte
  • Widgets
  • user-avatar
    Anmelden

    Stündliche Wetter Brecht

    Heute, 25 November, Samstag

    Zeit Temperatur Niederschläge Wind Luftdruck Luftfeuchtigkeit
    00:00 +7°C° 0,6 mm 1 m/S 756 mmHg 84%
    01:00 +7°C° 0,1 mm 1 m/S 756 mmHg 83%
    02:00 +7°C° 0,1 mm 1 m/S 755 mmHg 83%
    03:00 +6°C° 0,1 mm 1 m/S 755 mmHg 83%
    04:00 +6°C° 0 mm 1 m/S 755 mmHg 83%
    05:00 +6°C° 0 mm 1 m/S 755 mmHg 83%
    06:00 +5°C° 0 mm 1 m/S 755 mmHg 83%
    07:00 +5°C° 0 mm 2 m/S 755 mmHg 81%
    08:00 +5°C° 0 mm 2 m/S 756 mmHg 79%
    09:00 +6°C° 0 mm 2 m/S 756 mmHg 77%
    10:00 +6°C° 0,1 mm 2 m/S 756 mmHg 74%
    11:00 +7°C° 0,1 mm 3 m/S 757 mmHg 72%
    12:00 +6°C° 0,1 mm 4 m/S 757 mmHg 70%
    13:00 +6°C° 0,2 mm 4 m/S 757 mmHg 69%
    14:00 +5°C° 0,2 mm 4 m/S 758 mmHg 69%
    15:00 +5°C° 0,2 mm 4 m/S 758 mmHg 69%
    16:00 +4°C° 0,1 mm 4 m/S 759 mmHg 71%
    17:00 +4°C° 0,1 mm 4 m/S 759 mmHg 73%
    18:00 +3°C° 0,1 mm 4 m/S 760 mmHg 75%
    19:00 +3°C° 0,1 mm 4 m/S 760 mmHg 76%
    20:00 +3°C° 0,1 mm 4 m/S 760 mmHg 77%
    21:00 +3°C° 0,1 mm 4 m/S 761 mmHg 78%
    22:00 +1°C° 0 mm 4 m/S 761 mmHg 78%
    23:00 +1°C° 0 mm 4 m/S 762 mmHg 79%

    Morgen, 26 November, Sonntag

    Zeit Temperatur Niederschläge Wind Luftdruck Luftfeuchtigkeit
    00:00 +1°C° 0 mm 4 m/S 762 mmHg 79%
    01:00 +1°C° 0 mm 4 m/S 762 mmHg 79%
    02:00 +1°C° 0 mm 5 m/S 762 mmHg 79%
    03:00 +1°C° 0 mm 5 m/S 762 mmHg 79%
    04:00 +1°C° 0,1 mm 5 m/S 763 mmHg 79%
    05:00 +1°C° 0,1 mm 5 m/S 763 mmHg 78%
    06:00 +2°C° 0,1 mm 5 m/S 763 mmHg 78%
    07:00 +2°C° 0,1 mm 5 m/S 764 mmHg 77%
    08:00 +2°C° 0,1 mm 5 m/S 764 mmHg 77%
    09:00 +3°C° 0,1 mm 5 m/S 764 mmHg 76%
    10:00 +3°C° 0,2 mm 5 m/S 765 mmHg 72%
    11:00 +4°C° 0,2 mm 6 m/S 765 mmHg 69%
    12:00 +5°C° 0,2 mm 6 m/S 765 mmHg 66%
    13:00 +4°C° 0,1 mm 6 m/S 765 mmHg 66%
    14:00 +5°C° 0,1 mm 5 m/S 765 mmHg 67%
    15:00 +5°C° 0,1 mm 5 m/S 765 mmHg 68%
    16:00 +3°C° 0,1 mm 5 m/S 766 mmHg 70%
    17:00 +4°C° 0,1 mm 4 m/S 766 mmHg 72%
    18:00 +3°C° 0,1 mm 4 m/S 766 mmHg 75%
    19:00 +3°C° 0,1 mm 4 m/S 767 mmHg 76%
    20:00 +3°C° 0,1 mm 4 m/S 767 mmHg 77%
    21:00 +4°C° 0,1 mm 4 m/S 767 mmHg 78%
    22:00 +4°C° 0,1 mm 4 m/S 767 mmHg 78%
    23:00 +3°C° 0,1 mm 5 m/S 767 mmHg 78%

    übermorgen, 27 November, Montag

    Zeit Temperatur Niederschläge Wind Luftdruck Luftfeuchtigkeit
    00:00 +3°C° 0,1 mm 5 m/S 767 mmHg 78%
    01:00 +3°C° 0,1 mm 5 m/S 767 mmHg 78%
    02:00 +3°C° 0,1 mm 5 m/S 766 mmHg 79%
    03:00 +3°C° 0,1 mm 5 m/S 766 mmHg 79%
    04:00 +2°C° 0 mm 5 m/S 766 mmHg 80%
    05:00 +2°C° 0 mm 5 m/S 766 mmHg 80%
    06:00 +2°C° 0 mm 6 m/S 766 mmHg 80%
    07:00 +2°C° 0 mm 6 m/S 765 mmHg 80%
    08:00 +2°C° 0 mm 6 m/S 764 mmHg 80%
    09:00 +3°C° 0 mm 7 m/S 764 mmHg 80%
    10:00 +2°C° 0,4 mm 8 m/S 763 mmHg 81%
    11:00 +4°C° 0,4 mm 8 m/S 762 mmHg 83%
    12:00 +5°C° 0,4 mm 9 m/S 761 mmHg 84%
    13:00 +5°C° 1,3 mm 8 m/S 761 mmHg 85%
    14:00 +5°C° 1,3 mm 8 m/S 760 mmHg 87%
    15:00 +5°C° 1,3 mm 8 m/S 759 mmHg 88%
    16:00 +6°C° 0,5 mm 7 m/S 759 mmHg 87%
    17:00 +7°C° 0,5 mm 6 m/S 759 mmHg 87%
    18:00 +7°C° 0,5 mm 5 m/S 759 mmHg 86%
    19:00 +6°C° 0,1 mm 4 m/S 759 mmHg 86%
    20:00 +6°C° 0,1 mm 4 m/S 758 mmHg 86%
    21:00 +7°C° 0,1 mm 3 m/S 758 mmHg 86%
    22:00 +5°C° 0,1 mm 4 m/S 758 mmHg 86%
    23:00 +5°C° 0,1 mm 4 m/S 757 mmHg 86%

    28 November, Dienstag

    Zeit Temperatur Niederschläge Wind Luftdruck Luftfeuchtigkeit
    00:00 +5°C° 0,1 mm 4 m/S 756 mmHg 86%
    01:00 +5°C° 0,3 mm 4 m/S 755 mmHg 87%
    02:00 +5°C° 0,3 mm 4 m/S 755 mmHg 87%
    03:00 +5°C° 0,3 mm 4 m/S 754 mmHg 88%
    04:00 +5°C° 0,3 mm 5 m/S 752 mmHg 89%
    05:00 +5°C° 0,3 mm 5 m/S 751 mmHg 90%
    06:00 +5°C° 0,3 mm 6 m/S 750 mmHg 91%
    07:00 +5°C° 1,6 mm 7 m/S 749 mmHg 89%
    08:00 +5°C° 1,6 mm 8 m/S 748 mmHg 88%
    09:00 +5°C° 1,6 mm 9 m/S 747 mmHg 86%
    10:00 +6°C° 0,4 mm 9 m/S 746 mmHg 80%
    11:00 +7°C° 0,4 mm 9 m/S 745 mmHg 73%
    12:00 +7°C° 0,4 mm 8 m/S 744 mmHg 67%
    13:00 +7°C° 0,4 mm 8 m/S 744 mmHg 68%
    14:00 +6°C° 0,4 mm 8 m/S 743 mmHg 69%
    15:00 +5°C° 0,4 mm 7 m/S 743 mmHg 70%
    16:00 +5°C° 0,7 mm 6 m/S 743 mmHg 75%
    17:00 +5°C° 0,7 mm 6 m/S 743 mmHg 79%
    18:00 +6°C° 0,7 mm 5 m/S 743 mmHg 84%
    19:00 +5°C° 0,2 mm 6 m/S 743 mmHg 84%
    20:00 +4°C° 0,2 mm 6 m/S 744 mmHg 84%
    21:00 +4°C° 0,2 mm 6 m/S 744 mmHg 84%
    22:00 +4°C° 0,1 mm 6 m/S 745 mmHg 81%
    23:00 +5°C° 0,1 mm 6 m/S 745 mmHg 77%

    29 November, Mittwoch

    Zeit Temperatur Niederschläge Wind Luftdruck Luftfeuchtigkeit
    00:00 +5°C° 0,1 mm 6 m/S 746 mmHg 74%
    01:00 +5°C° 0 mm 5 m/S 746 mmHg 74%
    02:00 +5°C° 0 mm 5 m/S 747 mmHg 75%
    03:00 +4°C° 0 mm 4 m/S 747 mmHg 76%
    04:00 +4°C° 0 mm 4 m/S 747 mmHg 77%
    05:00 +3°C° 0 mm 3 m/S 748 mmHg 78%
    06:00 +3°C° 0 mm 3 m/S 748 mmHg 79%
    07:00 +3°C° 0,1 mm 3 m/S 748 mmHg 79%
    08:00 +4°C° 0,1 mm 3 m/S 749 mmHg 80%
    09:00 +4°C° 0,1 mm 3 m/S 749 mmHg 80%
    10:00 +4°C° 0,4 mm 4 m/S 749 mmHg 78%
    11:00 +5°C° 0,4 mm 4 m/S 749 mmHg 76%
    12:00 +6°C° 0,4 mm 4 m/S 750 mmHg 74%
    13:00 +5°C° 0,3 mm 4 m/S 750 mmHg 74%
    14:00 +5°C° 0,3 mm 4 m/S 750 mmHg 74%
    15:00 +5°C° 0,3 mm 3 m/S 750 mmHg 74%
    16:00 +4°C° 0,1 mm 3 m/S 751 mmHg 74%
    17:00 +3°C° 0,1 mm 3 m/S 751 mmHg 75%
    18:00 +4°C° 0,1 mm 2 m/S 752 mmHg 75%
    19:00 +4°C° 0,1 mm 2 m/S 752 mmHg 75%
    20:00 +3°C° 0,1 mm 2 m/S 752 mmHg 76%
    21:00 +3°C° 0,1 mm 2 m/S 753 mmHg 76%
    22:00 +2°C° 0,1 mm 3 m/S 753 mmHg 78%
    23:00 +2°C° 0,1 mm 3 m/S 753 mmHg 79%

    30 November, Donnerstag

    Zeit Temperatur Niederschläge Wind Luftdruck Luftfeuchtigkeit
    00:00 +2°C° 0,1 mm 3 m/S 753 mmHg 80%
    01:00 +2°C° 0,1 mm 3 m/S 753 mmHg 80%
    02:00 +2°C° 0,1 mm 3 m/S 753 mmHg 80%
    03:00 +2°C° 0,1 mm 3 m/S 753 mmHg 80%
    04:00 +1°C° 0,3 mm 4 m/S 753 mmHg 80%
    05:00 +3°C° 0,3 mm 4 m/S 753 mmHg 79%
    06:00 +2°C° 0,3 mm 5 m/S 753 mmHg 79%
    07:00 +2°C° 0,2 mm 5 m/S 753 mmHg 78%
    08:00 +2°C° 0,2 mm 5 m/S 753 mmHg 77%
    09:00 +2°C° 0,2 mm 6 m/S 753 mmHg 76%
    10:00 +2°C° 0,3 mm 6 m/S 752 mmHg 73%
    11:00 +2°C° 0,3 mm 7 m/S 752 mmHg 71%
    12:00 +3°C° 0,3 mm 7 m/S 752 mmHg 68%
    13:00 +2°C° 0,5 mm 7 m/S 752 mmHg 70%
    14:00 +2°C° 0,5 mm 7 m/S 752 mmHg 71%
    15:00 +2°C° 0,5 mm 6 m/S 752 mmHg 72%
    16:00 +2°C° 0,5 mm 6 m/S 752 mmHg 73%
    17:00 +1°C° 0,5 mm 6 m/S 752 mmHg 74%
    18:00 +1°C° 0,5 mm 6 m/S 752 mmHg 75%
    19:00 +1°C° 0,5 mm 6 m/S 752 mmHg 76%
    20:00 +1°C° 0,5 mm 6 m/S 752 mmHg 78%
    21:00 +1°C° 0,5 mm 6 m/S 752 mmHg 79%
    22:00 0°C° 0,5 mm 5 m/S 751 mmHg 80%
    23:00 0°C° 0,5 mm 5 m/S 751 mmHg 81%
    Mehr zeigen